sat.trackr.live / text

‹ back to catalog

STARLINK-36117

NORAD 66865 · 2025-281T

PAYLOAD ACTIVE UNKNOWN

§ Identity

Operator
Country
US
Launch date
2025-12-02
Launch site
AFETR
Launch vehicle
Mass (kg)
RCS (m²)

Purposes: comms

External: N2YO · Heavens-Above · Gunter

§ Orbital elements

Epoch: 2026-05-24T18:17:55.452768Z

Period
94.27 min
Inclination
43.0012°
Eccentricity
0.0001596
Mean motion
15.27594685 rev/d
Perigee alt
481.9 km
Apogee alt
484.1 km
Semi-major
6,861.1 km
B*
7.1908e-4
RAAN
273.5279°
Arg perigee
265.9012°
Mean anomaly
94.1658°
Rev number
2,782

§ Raw data

STARLINK-361171 66865U 25281T   26144.76244737  .00019587  00000+0  71908-3 0  99932 66865  43.0012 273.5279 0001596 265.9012  94.1658 15.27594685 27828

JSON: /api/v1/satellites/66865 · /tle

For live sub-satellite position, see the globe view (requires WebGL).

§ Visibility from observer

Set your observer location to see the next 7 days of passes ≥ 10°. The values pass through the URL so the page stays shareable.

No JS? Fill the form by hand. The geolocation button needs JavaScript.